Location: Banff
(51.1667°N, 115.5667°W)
Time: 13:40:06
(UTC+00:00)

Tiros 1 - Pass Details

Date: 07 August 2021
Orbit: 630 x 663 km, 48.4° (Epoch: 27 September)

Event Time Altitude Azimuth Distance (km) Brightness Sun altitude
Rises 06:03:05 0° 276° (W) 2,972 11.0 -18.7°
Reaches altitude 10° 06:06:37 10° 250° (WSW) 2,048 9.8 -18.9°
Maximum altitude 06:08:46 13° 222° (SW) 1,842 9.3 -19.1°
Enters shadow 06:08:53 13° 221° (SW) 1,842 9.2 -19.1°
